ПЕТРИЧ - 3 етаж/Градина/Спалня Measurements

Back to Overview

Timestamp Temp In Hum In Temp 1 Hum 1 Temp 2 Hum 2 Temp 3 Hum 3
5/8/2021 7:07:32 AM 24,4 C 43.0% 13,6 C 84.0% 14,7 C 77.0% 24,9 C 42.0%
5/8/2021 7:00:29 AM 24,4 C 43.0% 13,1 C 85.0% 14,5 C 77.0% 24,8 C 42.0%
5/8/2021 6:53:33 AM 24,5 C 43.0% 13,2 C 84.0% 14,8 C 76.0% 24,9 C 42.0%
5/8/2021 6:46:32 AM 24,5 C 43.0% 13,4 C 84.0% 14,9 C 76.0% 24,9 C 42.0%
5/8/2021 6:39:31 AM 24,5 C 43.0% 13,1 C 86.0% 15,0 C 76.0% 24,9 C 42.0%
5/8/2021 6:32:35 AM 24,5 C 43.0% 12,8 C 85.0% 15,1 C 76.0% 24,9 C 42.0%
5/8/2021 6:25:33 AM 24,5 C 43.0% 12,8 C 85.0% 15,3 C 75.0% 24,9 C 42.0%
5/8/2021 6:18:31 AM 24,5 C 43.0% 12,9 C 85.0% 15,3 C 75.0% 25,0 C 42.0%
5/8/2021 6:11:30 AM 24,4 C 43.0% 13,1 C 84.0% 15,5 C 74.0% 25,0 C 42.0%
5/8/2021 6:04:28 AM 24,4 C 44.0% 13,1 C 84.0% 15,6 C 74.0% 25,0 C 42.0%
5/8/2021 5:57:30 AM 24,3 C 44.0% 13,2 C 84.0% 15,4 C 75.0% 25,0 C 42.0%
5/8/2021 5:50:33 AM 24,2 C 44.0% 13,2 C 84.0% 15,6 C 75.0% 25,0 C 42.0%
5/8/2021 5:43:37 AM 24,3 C 43.0% 13,4 C 83.0% 15,5 C 75.0% 25,0 C 42.0%
5/8/2021 5:36:32 AM 24,3 C 43.0% 13,2 C 84.0% 15,3 C 75.0% 25,0 C 42.0%
5/8/2021 5:29:32 AM 24,3 C 43.0% 13,2 C 84.0% 15,4 C 74.0% 25,1 C 41.0%
5/8/2021 5:22:29 AM 24,3 C 43.0% 13,2 C 83.0% 15,3 C 75.0% 25,1 C 41.0%
5/8/2021 5:15:31 AM 24,4 C 43.0% 13,4 C 83.0% 15,3 C 74.0% 25,1 C 41.0%
5/8/2021 5:08:29 AM 24,4 C 43.0% 13,6 C 83.0% 15,4 C 74.0% 25,1 C 41.0%
5/8/2021 5:01:29 AM 24,5 C 43.0% 13,5 C 84.0% 15,5 C 74.0% 25,2 C 41.0%
5/8/2021 4:54:29 AM 24,5 C 43.0% 13,3 C 82.0% 15,7 C 73.0% 25,2 C 41.0%
5/8/2021 4:47:31 AM 24,5 C 43.0% 13,5 C 81.0% 16,0 C 72.0% 25,2 C 41.0%
5/8/2021 4:40:30 AM 24,6 C 43.0% 13,8 C 80.0% 16,1 C 71.0% 25,2 C 41.0%
5/8/2021 4:33:34 AM 24,6 C 43.0% 14,1 C 79.0% 16,2 C 71.0% 25,2 C 41.0%
5/8/2021 4:26:29 AM 24,7 C 43.0% 14,2 C 78.0% 16,5 C 70.0% 25,2 C 41.0%
5/8/2021 4:19:33 AM 24,7 C 43.0% 14,5 C 77.0% 16,8 C 70.0% 25,2 C 41.0%
5/8/2021 4:12:30 AM 24,7 C 43.0% 14,6 C 77.0% 16,8 C 70.0% 25,3 C 41.0%
5/8/2021 4:05:32 AM 24,8 C 43.0% 14,6 C 77.0% 16,9 C 70.0% 25,3 C 41.0%
5/8/2021 3:58:31 AM 24,8 C 42.0% 14,8 C 76.0% 17,0 C 69.0% 25,3 C 41.0%
5/8/2021 3:51:32 AM 24,8 C 42.0% 15,2 C 75.0% 17,2 C 68.0% 25,3 C 41.0%
5/8/2021 3:44:34 AM 24,9 C 42.0% 15,2 C 74.0% 17,4 C 67.0% 25,3 C 41.0%
5/8/2021 3:37:30 AM 24,9 C 42.0% 15,1 C 74.0% 17,4 C 68.0% 25,4 C 41.0%
5/8/2021 3:30:30 AM 24,9 C 42.0% 15,3 C 74.0% 17,3 C 68.0% 25,4 C 41.0%
5/8/2021 3:23:28 AM 25,0 C 42.0% 15,5 C 74.0% 17,1 C 69.0% 25,4 C 41.0%
5/8/2021 3:16:30 AM 25,0 C 42.0% 15,5 C 74.0% 17,1 C 69.0% 25,4 C 41.0%
5/8/2021 3:09:30 AM 25,0 C 42.0% 15,6 C 74.0% 17,3 C 68.0% 25,4 C 41.0%
5/8/2021 3:02:28 AM 25,1 C 42.0% 15,5 C 74.0% 17,5 C 67.0% 25,5 C 41.0%
5/8/2021 2:55:29 AM 25,1 C 42.0% 15,4 C 73.0% 17,6 C 67.0% 25,5 C 41.0%
5/8/2021 2:48:28 AM 25,2 C 42.0% 15,6 C 72.0% 17,7 C 66.0% 25,5 C 41.0%
5/8/2021 2:41:30 AM 25,2 C 42.0% 15,9 C 72.0% 17,7 C 67.0% 25,5 C 41.0%
5/8/2021 2:34:28 AM 25,2 C 42.0% 16,2 C 70.0% 17,9 C 66.0% 25,5 C 41.0%
5/8/2021 2:27:31 AM 25,2 C 42.0% 16,3 C 70.0% 18,0 C 66.0% 25,5 C 41.0%
5/8/2021 2:20:31 AM 25,3 C 42.0% 16,5 C 70.0% 17,9 C 66.0% 25,5 C 41.0%
5/8/2021 2:13:27 AM 25,3 C 42.0% 16,4 C 71.0% 17,9 C 67.0% 25,5 C 41.0%
5/8/2021 2:06:26 AM 25,3 C 42.0% 16,3 C 71.0% 18,0 C 66.0% 25,6 C 41.0%
5/8/2021 1:59:29 AM 25,3 C 42.0% 16,4 C 71.0% 18,1 C 66.0% 25,6 C 41.0%
5/8/2021 1:52:30 AM 25,3 C 42.0% 16,6 C 70.0% 18,1 C 66.0% 25,6 C 41.0%
5/8/2021 1:45:28 AM 25,4 C 42.0% 16,9 C 69.0% 18,2 C 66.0% 25,6 C 41.0%
5/8/2021 1:38:28 AM 25,4 C 42.0% 17,3 C 69.0% 18,4 C 65.0% 25,6 C 41.0%
5/8/2021 1:31:30 AM 25,5 C 41.0% 17,4 C 66.0% 18,4 C 64.0% 25,6 C 41.0%
5/8/2021 1:24:26 AM 25,5 C 41.0% 17,4 C 67.0% 18,7 C 64.0% 25,6 C 41.0%
5/8/2021 1:17:30 AM 25,5 C 41.0% 17,4 C 67.0% 18,7 C 63.0% 25,7 C 41.0%
5/8/2021 1:10:28 AM 25,5 C 41.0% 17,4 C 67.0% 18,6 C 63.0% 25,7 C 41.0%
5/8/2021 1:03:32 AM 25,5 C 41.0% 17,5 C 66.0% 18,7 C 63.0% 25,7 C 41.0%
5/8/2021 12:56:28 AM 25,6 C 41.0% 17,6 C 65.0% 18,8 C 63.0% 25,7 C 41.0%
5/8/2021 12:49:30 AM 25,6 C 41.0% 17,5 C 65.0% 18,7 C 62.0% 25,7 C 41.0%
5/8/2021 12:42:30 AM 25,6 C 41.0% 17,5 C 65.0% 18,8 C 62.0% 25,7 C 41.0%
5/8/2021 12:35:29 AM 25,6 C 41.0% 17,6 C 65.0% 18,9 C 62.0% 25,7 C 41.0%
5/8/2021 12:28:22 AM 25,6 C 41.0% 17,6 C 65.0% 18,7 C 63.0% 25,8 C 41.0%
5/8/2021 12:21:27 AM 25,6 C 41.0% 17,7 C 65.0% 19,0 C 62.0% 25,8 C 41.0%
5/8/2021 12:14:24 AM 25,7 C 41.0% 18,1 C 63.0% 19,2 C 61.0% 25,8 C 41.0%
5/8/2021 12:07:23 AM 25,7 C 41.0% 18,2 C 63.0% 19,3 C 61.0% 25,8 C 41.0%
5/8/2021 12:00:24 AM 25,7 C 41.0% 18,2 C 62.0% 19,4 C 60.0% 25,8 C 41.0%